Location: Boullarre
(49.1305°N, 3.0047°E)
Time: 04:42:55
(UTC+00:00)

Envisat - Visible Passes

Search period start: 18 September 2024 00:00
Search period end: 28 September 2024 00:00
Orbit: 762 x 764 km, 98.3° (Epoch: 17 September)

Date Brightness Start Highest point End Pass type
(mag) Time Alt. Az. Time Alt. Az. Time Alt. Az.
18 Sep 4.5 02:15:37 10° NNE 02:20:06 31° E 02:21:49 25° SE visible
18 Sep 3.5 03:54:25 10° N 03:59:10 41° WNW 04:01:58 22° WSW visible
19 Sep 5.4 01:39:18 10° NE 01:42:14 15° E 01:43:49 13° ESE visible
19 Sep 2.9 03:16:44 10° NNE 03:21:51 82° WNW 03:23:57 36° SSW visible
19 Sep 4.7 04:57:16 10° NNW 05:00:03 15° NW 05:02:48 10° W visible
20 Sep 3.7 02:39:22 10° NNE 02:44:19 49° E 02:45:57 36° SSE visible
20 Sep 4.0 04:18:49 10° N 04:23:02 27° WNW 04:26:05 16° WSW visible
21 Sep 4.8 02:02:29 10° NE 02:06:35 24° E 02:07:56 22° ESE visible
21 Sep 3.2 03:40:54 10° N 03:45:50 52° WNW 03:48:05 30° SW visible
22 Sep 5.6 01:26:56 10° ENE 01:28:37 11° E 01:29:55 11° E visible
22 Sep 3.0 03:03:19 10° NNE 03:08:26 78° ESE 03:10:04 44° S visible
22 Sep 4.5 04:43:24 10° NNW 04:46:49 18° WNW 04:50:13 10° W visible
23 Sep 4.1 02:26:06 10° NNE 02:30:50 38° E 02:32:03 33° SE visible
23 Sep 3.7 04:05:12 10° N 04:09:44 34° WNW 04:12:11 22° WSW visible
24 Sep 5.1 01:49:27 10° NE 01:53:01 19° E 01:54:02 18° ESE visible
24 Sep 2.9 03:27:24 10° N 03:32:28 67° WNW 03:34:10 41° SW visible
24 Sep 4.9 05:08:29 10° NNW 05:10:30 12° NW 05:12:30 10° WNW visible
25 Sep 3.3 02:49:56 10° NNE 02:54:59 61° E 02:56:09 48° SSE visible
25 Sep 4.3 04:29:39 10° N 04:33:33 23° WNW 04:36:17 15° W visible
26 Sep 4.5 02:12:51 10° NNE 02:17:18 30° E 02:18:07 28° ESE visible
26 Sep 3.4 03:51:37 10° N 03:56:23 43° WNW 03:58:16 30° WSW visible
27 Sep 5.4 01:36:38 10° NE 01:39:24 15° E 01:40:05 14° E visible
27 Sep 2.9 03:13:56 10° NNE 03:19:03 85° WNW 03:20:14 54° SSW visible
27 Sep 4.7 04:54:23 10° NNW 04:57:16 15° NW 05:00:09 10° W visible
